Theta_e
311 312 312 313 314 315 316 316 317 317 314 314 314 314 315 314 313 315 316 315 320 321 319 321 317 317 328 330 330 330 322 323 328 338 338 337 332 334 337 344 341 343 336 335 341
312 312 313 314 314 315 316 317 317 317 314 315 314 314 315 314 315 319 317 315 320 320 318 318 316 323 328 329 328 323 319 322 325 335 336 337 334 336 339 342 342 341 337 336 336
313 313 314 314 315 316 316 317 318 317 315 315 315 315 315 314 320 331 317 318 319 321 319 317 321 325 327 327 325 323 323 323 327 329 336 330 331 337 339 340 341 338 336 336 337
314 315 315 316 316 316 317 318 319 318 315 315 316 315 315 315 329 327 326 324 320 322 319 316 323 323 323 321 323 322 323 324 326 328 335 327 329 337 338 338 338 337 338 337 337
316 316 316 317 317 317 317 318 319 318 316 315 316 315 315 316 321 330 321 318 321 318 316 323 323 325 321 321 322 321 322 325 326 330 328 329 329 328 334 339 339 340 338 337 338
317 317 317 317 317 317 318 318 319 318 317 315 316 314 314 316 330 327 321 315 315 315 317 324 324 324 323 321 319 322 322 323 326 327 328 327 327 330 338 340 340 339 338 338 337
318 318 318 318 318 318 318 319 320 319 316 315 316 313 313 319 328 328 321 315 315 316 324 324 322 324 322 321 323 323 321 320 324 326 325 327 326 325 340 340 339 339 338 337 336
319 319 319 319 319 318 318 320 321 320 316 316 316 317 317 328 328 327 318 316 318 317 320 320 320 321 322 323 321 321 318 320 321 323 327 326 324 330 340 340 339 338 338 338 337
317 318 319 319 319 319 319 322 324 321 317 317 320 328 321 327 327 328 319 321 321 321 320 320 321 322 322 317 315 315 319 319 319 322 322 324 323 325 338 338 337 337 337 337 337
315 316 318 319 319 319 321 325 326 325 318 320 318 324 322 324 327 328 323 322 321 320 320 319 320 315 312 314 317 318 319 318 318 319 321 320 323 326 338 337 336 336 336 336 336
313 314 317 319 319 320 324 326 324 324 321 322 327 320 323 326 323 327 325 323 322 320 316 318 314 314 315 315 317 317 319 319 318 320 321 319 322 324 333 337 336 337 335 335 336
312 313 315 318 320 320 324 325 324 323 322 322 322 323 326 326 326 327 324 323 321 317 316 314 314 314 315 317 317 317 319 319 318 320 322 321 323 320 321 322 325 328 337 336 335
312 312 314 318 320 324 324 324 323 323 321 321 320 321 325 325 326 326 324 322 319 317 315 313 317 318 318 318 320 318 319 320 319 319 320 322 320 321 321 323 324 327 329 337 337
311 312 312 317 322 323 324 323 323 323 319 322 324 324 324 325 323 327 324 323 320 316 315 314 317 319 319 319 318 321 321 322 323 319 319 321 320 319 320 321 320 333 337 333 337
311 311 312 312 315 320 323 323 323 324 324 328 325 324 324 323 322 323 326 324 321 321 321 320 323 318 321 321 321 320 320 322 324 321 319 320 319 318 320 321 327 336 339 338 336
311 311 312 312 314 322 323 323 324 322 319 327 323 321 320 321 322 323 325 324 324 322 322 322 325 325 321 323 322 321 322 319 318 317 319 319 320 319 326 328 333 338 339 341 341
311 311 311 312 315 323 323 325 325 325 324 326 322 321 320 320 321 323 323 322 321 325 323 323 324 324 324 323 320 319 317 318 321 320 321 322 328 335 334 334 335 337 337 339 340
312 311 312 313 319 320 322 322 329 328 328 325 324 322 320 320 320 323 324 323 321 322 323 324 324 325 324 321 320 320 318 318 323 324 324 326 335 338 333 333 332 333 332 333 338
312 312 316 321 321 323 324 325 325 327 327 326 324 322 321 321 322 323 322 323 323 321 324 326 328 326 323 324 322 324 321 318 320 322 324 330 337 337 333 332 331 330 329 327 327
312 313 325 325 323 324 322 324 325 325 326 325 325 326 326 327 326 321 321 323 324 324 324 327 327 327 327 324 323 323 323 323 320 326 328 327 333 338 335 332 330 328 327 327 327
312 314 326 325 324 325 323 323 325 326 327 325 325 324 326 328 328 324 322 327 328 327 324 324 324 326 326 326 326 324 321 323 320 321 324 328 339 335 334 331 330 328 328 327 327
310 312 325 325 323 322 322 324 326 327 327 325 324 324 325 328 329 329 328 327 328 329 330 330 323 328 328 327 326 325 326 322 323 326 325 323 330 332 330 329 329 325 321 323 326
307 313 320 318 319 318 320 322 323 326 327 326 327 326 327 327 328 329 327 327 328 328 331 330 324 324 323 320 324 327 327 327 322 322 326 326 331 332 331 326 324 322 320 321 322
309 314 322 321 321 320 322 324 325 326 325 325 325 325 325 327 327 329 327 327 325 325 327 329 325 322 322 325 325 326 327 327 325 326 327 326 336 324 322 318 318 319 319 318 318
313 318 318 319 320 318 320 323 323 324 324 324 323 324 324 327 329 328 329 326 324 324 328 323 327 328 328 328 327 327 326 324 324 327 328 326 328 321 317 315 318 318 318 318 318
315 316 315 317 318 316 317 321 324 323 322 325 325 324 323 325 325 326 328 326 327 324 329 323 328 326 326 326 323 324 323 323 322 321 321 322 321 316 316 317 317 317 317 317 318
314 314 313 316 317 317 317 318 322 322 323 323 324 324 323 323 323 323 323 324 324 327 327 325 324 323 327 324 323 324 322 322 322 321 320 322 318 316 315 316 317 318 318 319 319
Wind_Speed
18 18 18 19 20 20 20 20 19 19 16 15 13 12 12 12 11 12 13 6 11 9 12 10 11 13 10 7 14 8 2 4 6 7 6 6 3 11 13 23 4 6 22 31 33
19 19 19 20 20 20 20 20 20 18 16 15 14 13 12 12 12 14 4 13 11 10 9 11 15 17 7 6 6 8 5 9 13 9 7 10 7 16 9 19 12 17 23 36 30
20 20 20 20 21 21 20 20 20 17 16 15 13 12 10 10 11 2 5 9 12 8 6 11 11 9 7 5 6 6 8 4 21 25 30 9 9 11 21 1 25 35 41 36 33
21 21 21 21 21 21 21 20 21 17 16 16 12 10 8 6 2 2 4 8 10 9 12 16 11 5 5 5 7 5 12 16 27 32 17 10 7 15 21 15 28 31 39 40 36
22 22 22 22 22 22 21 19 20 17 16 14 10 8 5 5 7 4 3 9 11 13 17 16 12 10 4 4 6 6 10 15 18 23 10 13 7 5 13 25 32 36 37 39 35
22 22 22 22 22 22 21 20 18 17 17 11 8 5 3 4 1 2 4 8 12 16 18 18 9 4 10 4 2 11 18 23 4 2 4 6 8 10 17 36 36 38 40 38 35
23 23 23 23 22 22 20 18 17 18 13 9 5 4 7 9 3 3 2 5 10 15 18 11 5 10 8 6 11 11 6 10 4 3 4 2 8 7 33 38 39 40 41 38 34
24 24 24 23 22 22 19 17 16 14 9 4 2 6 7 0 7 6 6 11 11 12 7 6 10 7 7 10 9 6 4 5 8 11 9 7 9 5 39 39 35 38 40 40 36
24 24 24 23 22 20 17 14 14 7 2 0 0 4 4 4 14 6 10 11 5 2 4 6 3 2 3 4 6 6 2 6 10 8 5 4 10 7 38 40 36 35 37 41 37
24 25 24 23 21 19 11 14 5 3 3 6 8 7 8 15 16 11 5 6 4 3 4 1 2 3 4 5 3 5 3 4 5 9 2 5 12 4 41 31 32 40 37 40 40
25 25 24 22 20 16 8 8 8 2 15 10 8 12 11 4 16 16 6 9 11 7 3 1 5 5 11 9 8 4 0 4 6 6 3 5 3 2 20 21 21 25 30 41 41
25 25 24 21 17 8 9 8 8 12 12 19 18 24 22 10 8 17 11 10 7 5 2 5 7 12 4 3 5 7 6 6 7 7 2 6 5 6 5 8 17 24 39 42 39
26 25 25 21 10 3 9 9 12 10 5 14 15 22 15 12 20 19 19 17 5 4 6 6 8 8 7 6 6 5 7 6 8 5 4 2 7 5 9 10 14 12 16 38 42
26 25 25 22 4 7 5 5 8 13 4 7 6 7 15 10 3 18 22 15 5 10 5 7 12 7 6 7 8 4 4 2 5 2 3 4 5 6 7 9 9 15 17 25 46
25 25 23 22 17 8 5 5 7 5 3 4 7 9 13 15 3 16 25 22 9 5 3 8 6 7 6 8 4 8 2 3 1 3 3 7 3 8 6 8 6 14 30 25 23
25 23 23 21 16 2 4 6 3 5 5 4 8 6 7 9 6 5 29 17 8 5 3 10 9 4 7 4 5 5 5 7 5 3 4 6 5 5 7 6 9 22 29 37 38
25 21 22 18 10 4 6 3 4 3 6 2 4 6 7 5 5 5 9 7 5 1 4 7 6 5 5 2 6 7 7 4 4 4 5 4 7 4 6 13 13 23 29 34 40
25 22 19 15 5 6 6 4 2 4 3 6 5 6 8 6 6 9 8 6 6 4 1 2 8 4 3 7 7 6 8 6 5 3 5 4 5 3 5 24 29 30 30 37 40
25 20 12 4 6 8 4 2 6 4 4 9 4 6 4 7 6 6 9 11 9 9 7 4 5 9 13 5 8 2 3 7 6 1 3 1 4 4 4 14 25 27 33 33 39
25 19 4 11 7 6 4 5 4 5 11 3 5 4 3 4 3 4 9 5 7 11 12 6 1 5 5 7 5 4 4 3 3 4 3 4 3 6 5 12 14 19 27 31 31
19 9 6 9 9 3 2 6 5 16 18 3 3 3 3 2 2 2 8 2 1 4 10 5 3 5 5 3 0 5 4 6 5 4 5 2 4 3 5 9 13 17 25 24 23
9 4 9 16 2 1 2 4 5 18 26 3 1 0 3 3 5 4 4 4 9 3 4 1 5 3 4 2 3 3 2 4 5 3 0 4 3 5 6 12 21 23 31 32 27
18 8 10 10 2 3 6 7 10 9 8 3 4 4 4 2 3 2 3 8 11 5 4 0 2 3 8 6 7 5 5 4 5 3 4 5 3 2 6 18 20 24 26 26 23
7 3 5 2 2 2 5 5 6 13 2 4 2 4 6 4 4 1 2 5 7 6 7 5 4 5 6 3 3 3 5 4 5 3 3 4 10 4 4 9 17 26 25 23 20
3 3 7 4 4 6 3 4 5 6 9 3 4 3 2 1 4 5 6 4 7 4 5 5 4 2 1 1 1 1 5 2 3 3 3 5 7 7 5 7 18 21 18 16 14
5 6 9 10 12 6 4 3 3 4 3 3 7 10 12 6 4 0 1 3 2 4 3 3 2 2 6 6 7 5 7 6 5 2 3 14 10 6 14 23 21 18 17 16 15
3 3 3 6 8 3 3 7 9 8 11 10 8 6 8 3 8 8 6 2 1 2 2 3 4 3 1 5 5 5 6 5 6 4 3 7 8 7 10 16 18 17 16 15 14
Wind_Direction
348 347 344 342 340 340 341 340 339 338 332 330 324 317 313 308 296 281 264 196 151 154 163 178 176 178 184 222 223 218 24 253 244 218 232 236 223 125 123 137 155 194 156 152 161
346 344 342 340 338 339 339 338 337 336 329 330 324 311 309 311 305 289 219 179 167 180 173 177 167 172 203 228 205 166 164 237 218 208 245 232 216 134 111 115 92 119 132 148 168
343 342 340 338 337 335 337 337 335 333 327 327 316 306 308 318 317 44 142 170 181 165 173 175 152 180 238 240 215 199 217 224 267 267 236 263 184 131 122 267 156 147 151 157 167
341 341 338 335 334 334 336 336 333 329 324 323 311 307 310 315 238 1 196 193 176 187 189 178 188 199 234 209 237 252 258 258 267 268 214 167 161 152 166 184 164 158 158 160 169
340 338 336 333 333 332 333 333 329 325 322 318 312 315 312 275 259 273 272 197 190 199 188 173 189 201 226 215 308 214 275 293 276 256 239 176 199 153 183 172 161 162 166 167 175
339 336 335 333 331 329 331 332 327 322 317 305 311 323 270 263 197 245 256 200 193 188 180 186 195 221 281 294 188 288 304 302 252 214 233 200 233 135 158 163 162 167 173 171 176
338 336 334 332 330 328 329 330 325 322 314 291 297 298 262 236 199 267 273 186 182 179 172 191 287 262 302 307 325 301 336 329 319 347 298 157 312 170 164 164 166 176 177 176 177
337 336 334 333 330 327 329 328 325 321 314 273 275 288 252 213 214 212 161 156 149 167 216 297 324 265 225 312 348 348 52 7 299 351 300 72 280 109 164 162 175 184 185 184 179
337 336 334 334 331 327 333 329 322 326 338 120 281 289 256 195 195 184 163 140 123 262 284 318 330 51 327 61 7 7 286 324 320 335 274 137 264 234 176 174 180 184 189 190 190
338 336 335 336 333 328 349 339 353 305 296 277 255 295 218 210 191 191 158 183 191 178 233 172 34 53 34 69 213 259 323 295 284 292 277 319 239 248 182 177 178 194 189 194 196
338 337 336 337 334 329 11 25 9 339 316 259 274 245 291 223 204 202 201 224 235 193 163 238 80 201 213 190 215 222 312 283 269 264 269 301 299 249 171 181 183 200 196 196 204
338 337 336 339 333 335 3 25 8 329 299 286 261 260 257 260 227 182 206 207 165 200 154 14 230 228 232 263 247 241 254 265 278 273 57 329 307 293 252 209 219 194 202 202 203
336 337 335 341 334 6 3 33 13 349 296 289 240 235 236 217 193 187 208 204 181 199 191 173 238 203 188 254 253 227 186 223 232 323 326 327 328 330 302 302 289 95 181 198 198
333 337 334 339 354 334 49 20 8 338 41 275 198 224 221 172 241 198 199 193 205 211 195 222 264 226 230 227 179 186 214 300 332 27 243 38 270 294 294 306 57 81 105 183 201
330 333 328 328 322 320 303 316 319 337 7 165 169 175 184 176 198 193 204 200 213 225 127 252 298 225 227 203 154 228 205 246 206 61 64 322 38 270 347 24 96 82 80 98 156
327 331 320 321 320 287 298 277 326 50 261 223 168 153 130 202 240 149 186 203 248 197 217 249 258 235 210 178 176 141 64 39 44 57 6 258 135 338 341 137 119 86 81 86 104
326 325 312 307 305 269 328 327 50 155 303 195 191 144 169 170 227 168 172 209 177 99 317 325 296 279 230 108 17 79 60 7 357 15 224 67 68 307 357 67 81 93 85 89 97
326 323 305 299 253 226 245 59 205 260 275 300 161 149 180 188 236 172 152 200 259 125 88 235 322 192 203 166 179 182 144 151 190 201 257 6 140 140 97 84 86 87 92 93 98
329 329 314 170 167 167 148 106 214 237 335 325 3 147 250 216 194 155 182 201 202 170 167 192 267 284 159 145 127 194 178 180 108 321 74 176 63 52 106 89 86 90 92 91 99
332 336 63 152 133 146 81 233 259 293 319 339 52 48 75 349 22 176 193 231 196 197 160 219 274 335 29 71 29 138 171 68 9 127 182 274 181 185 158 111 101 97 94 97 97
334 331 142 171 159 181 171 238 284 285 299 353 28 343 32 15 235 280 212 21 138 130 142 155 109 296 39 80 194 352 357 60 116 116 159 155 269 215 150 124 111 108 105 99 98
352 330 145 164 225 210 196 215 294 295 303 289 110 296 19 8 352 34 23 30 343 145 107 22 132 137 205 262 245 166 9 118 113 237 95 138 291 358 145 119 96 91 87 87 96
336 290 208 244 189 268 288 287 287 280 254 93 30 35 28 323 68 35 30 9 39 61 130 256 28 49 341 358 6 48 16 48 102 86 195 139 189 28 91 88 100 101 93 95 96
336 341 318 222 98 44 347 290 312 331 105 116 111 46 38 354 4 327 117 24 35 61 72 98 81 140 185 177 211 334 331 64 97 105 208 200 133 45 78 92 83 95 91 86 76
327 290 5 323 331 329 283 273 317 351 339 82 37 23 264 333 41 4 12 28 20 23 36 82 95 60 99 151 344 271 297 344 141 181 156 149 128 180 171 105 100 95 84 71 52
357 357 344 302 305 341 312 286 290 318 357 334 93 66 64 80 40 294 172 39 53 326 65 14 171 102 355 20 22 324 297 295 259 153 129 113 110 180 113 106 92 82 72 57 41
342 290 316 298 328 355 41 315 318 301 47 52 137 97 60 357 338 310 318 326 310 173 132 103 117 79 243 352 21 328 276 228 78 10 181 154 158 164 93 90 84 74 60 47 30